Time,TemperatureF,DewpointF,PressureIn,WindDirection,WindDirectionDegrees,WindSpeedMPH,WindSpeedGustMPH,Humidity,HourlyPrecipIn,Conditions,Clouds,dailyrainin,SolarRadiationWatts/m^2,SoftwareType,DateUTC
2013-05-06 00:00:00,47.4,44.3,30.11,WNW,284,4.0,4.0,89,0.00,,---,0.01,0.00,VWS V14.01,2013-05-05 22:00:00,
2013-05-06 00:01:00,47.3,44.2,30.11,WNW,284,3.0,4.0,89,0.00,,---,0.00,0.00,VWS V14.01,2013-05-05 22:01:00,
2013-05-06 00:05:00,47.2,44.1,30.12,WNW,283,3.0,5.0,89,0.00,,---,0.00,0.00,VWS V14.01,2013-05-05 22:05:00,
2013-05-06 00:06:00,47.2,44.1,30.11,WNW,283,2.0,3.0,89,0.00,,---,0.00,0.00,VWS V14.01,2013-05-05 22:06:00,
2013-05-06 00:10:00,47.1,44.0,30.12,WNW,283,4.0,5.0,89,0.00,,---,0.00,0.00,VWS V14.01,2013-05-05 22:10:00,
2013-05-06 00:11:00,47.1,44.0,30.12,WNW,283,5.0,5.0,89,0.00,,---,0.00,0.00,VWS V14.01,2013-05-05 22:11:00,
2013-05-06 00:15:00,47.1,44.0,30.12,West,273,4.0,6.0,89,0.00,,---,0.00,0.00,VWS V14.01,2013-05-05 22:15:00,
2013-05-06 00:16:00,47.1,44.0,30.11,West,273,5.0,5.0,89,0.00,,---,0.00,0.00,VWS V14.01,2013-05-05 22:16:00,
2013-05-06 00:20:00,46.9,43.8,30.11,West,265,6.0,7.0,89,0.00,,---,0.00,0.00,VWS V14.01,2013-05-05 22:20:00,
2013-05-06 00:21:00,46.9,44.1,30.11,West,271,4.0,7.0,90,0.00,,---,0.00,0.00,VWS V14.01,2013-05-05 22:21:00,
2013-05-06 00:25:00,46.8,44.0,30.11,West,275,0.0,7.0,90,0.00,,---,0.00,0.00,VWS V14.01,2013-05-05 22:25:00,
2013-05-06 00:26:00,46.7,43.9,30.11,West,275,2.0,2.0,90,0.00,,---,0.00,0.00,VWS V14.01,2013-05-05 22:26:00,
2013-05-06 00:30:00,46.7,43.9,30.11,West,275,0.0,4.0,90,0.00,,---,0.00,0.00,VWS V14.01,2013-05-05 22:30:00,
2013-05-06 00:35:00,46.7,43.9,30.11,West,275,0.0,1.0,90,0.00,,---,0.00,0.00,VWS V14.01,2013-05-05 22:35:00,
2013-05-06 00:40:00,46.6,43.8,30.11,West,261,2.0,5.0,90,0.00,,---,0.00,0.00,VWS V14.01,2013-05-05 22:40:00,
2013-05-06 00:41:00,46.6,43.8,30.11,West,261,2.0,3.0,90,0.00,,---,0.00,0.00,VWS V14.01,2013-05-05 22:41:00,
2013-05-06 00:45:00,46.5,43.7,30.11,WSW,257,2.0,4.0,90,0.00,,---,0.00,0.00,VWS V14.01,2013-05-05 22:45:00,
2013-05-06 00:46:00,46.5,43.7,30.11,WSW,257,3.0,3.0,90,0.00,,---,0.00,0.00,VWS V14.01,2013-05-05 22:46:00,
2013-05-06 00:50:00,46.4,43.6,30.11,West,267,3.0,4.0,90,0.00,,---,0.00,0.00,VWS V14.01,2013-05-05 22:50:00,
2013-05-06 00:51:00,46.4,43.6,30.11,West,268,0.0,4.0,90,0.00,,---,0.00,0.00,VWS V14.01,2013-05-05 22:51:00,
2013-05-06 00:55:00,46.4,43.9,30.11,West,276,3.0,6.0,91,0.00,,---,0.00,0.00,VWS V14.01,2013-05-05 22:55:00,
2013-05-06 00:56:00,46.4,43.9,30.11,WNW,284,4.0,5.0,91,0.00,,---,0.00,0.00,VWS V14.01,2013-05-05 22:56:00,
2013-05-06 01:00:00,46.4,43.9,30.10,West,278,4.0,5.0,91,0.00,,---,0.00,0.00,VWS V14.01,2013-05-05 23:00:00,
2013-05-06 01:01:00,46.4,43.9,30.10,WNW,282,3.0,5.0,91,0.00,,---,0.00,0.00,VWS V14.01,2013-05-05 23:01:00,
2013-05-06 01:05:00,46.4,43.9,30.11,West,281,3.0,5.0,91,0.00,,---,0.00,0.00,VWS V14.01,2013-05-05 23:05:00,
2013-05-06 01:06:00,46.4,43.9,30.11,West,281,3.0,4.0,91,0.00,,---,0.00,0.00,VWS V14.01,2013-05-05 23:06:00,
2013-05-06 01:10:00,46.4,43.9,30.11,West,281,3.0,5.0,91,0.00,,---,0.00,0.00,VWS V14.01,2013-05-05 23:10:00,
2013-05-06 01:11:00,46.4,43.9,30.11,West,281,3.0,4.0,91,0.00,,---,0.00,0.00,VWS V14.01,2013-05-05 23:11:00,
2013-05-06 01:15:00,46.3,43.8,30.11,West,275,5.0,5.0,91,0.00,,---,0.00,0.00,VWS V14.01,2013-05-05 23:15:00,
2013-05-06 01:16:00,46.3,43.8,30.11,West,270,6.0,6.0,91,0.00,,---,0.00,0.00,VWS V14.01,2013-05-05 23:16:00,
2013-05-06 01:20:00,46.2,43.7,30.11,WNW,286,6.0,7.0,91,0.00,,---,0.00,0.00,VWS V14.01,2013-05-05 23:20:00,
2013-05-06 01:21:00,46.1,43.6,30.11,West,273,5.0,6.0,91,0.00,,---,0.00,0.00,VWS V14.01,2013-05-05 23:21:00,
2013-05-06 01:25:00,46.2,43.7,30.11,West,267,5.0,6.0,91,0.00,,---,0.00,0.00,VWS V14.01,2013-05-05 23:25:00,
2013-05-06 01:26:00,46.2,43.7,30.10,West,266,6.0,6.0,91,0.00,,---,0.00,0.00,VWS V14.01,2013-05-05 23:26:00,
2013-05-06 01:30:00,46.1,43.6,30.10,West,271,3.0,6.0,91,0.00,,---,0.00,0.00,VWS V14.01,2013-05-05 23:30:00,
2013-05-06 01:35:00,46.1,43.6,30.10,WNW,286,0.0,4.0,91,0.00,,---,0.00,0.00,VWS V14.01,2013-05-05 23:35:00,
2013-05-06 01:40:00,46.2,43.7,30.10,WNW,289,4.0,4.0,91,0.00,,---,0.00,0.00,VWS V14.01,2013-05-05 23:40:00,
2013-05-06 01:45:00,46.1,43.6,30.10,WNW,286,3.0,5.0,91,0.00,,---,0.00,0.00,VWS V14.01,2013-05-05 23:45:00,
2013-05-06 01:50:00,46.0,43.5,30.10,WNW,286,3.0,5.0,91,0.00,,---,0.00,0.00,VWS V14.01,2013-05-05 23:50:00,
2013-05-06 01:55:00,45.9,43.4,30.10,West,281,5.0,5.0,91,0.00,,---,0.00,0.00,VWS V14.01,2013-05-05 23:55:00,
2013-05-06 02:00:00,45.8,43.3,30.10,West,272,5.0,5.0,91,0.00,,---,0.00,0.00,VWS V14.01,2013-05-06 00:00:00,
2013-05-06 02:05:00,45.8,43.3,30.10,West,277,4.0,5.0,91,0.00,,---,0.00,0.00,VWS V14.01,2013-05-06 00:05:00,
2013-05-06 02:10:00,45.8,43.3,30.10,West,277,5.0,5.0,91,0.00,,---,0.00,0.00,VWS V14.01,2013-05-06 00:10:00,
2013-05-06 02:15:00,45.8,43.3,30.10,West,269,4.0,7.0,91,0.00,,---,0.00,0.00,VWS V14.01,2013-05-06 00:15:00,
2013-05-06 02:20:00,45.7,43.2,30.10,West,275,6.0,6.0,91,0.00,,---,0.00,0.00,VWS V14.01,2013-05-06 00:20:00,
2013-05-06 02:21:00,45.7,43.2,30.10,West,273,5.0,6.0,91,0.00,,---,0.00,0.00,VWS V14.01,2013-05-06 00:21:00,
2013-05-06 02:25:00,45.6,43.1,30.10,WNW,283,6.0,7.0,91,0.00,,---,0.00,0.00,VWS V14.01,2013-05-06 00:25:00,
2013-05-06 02:26:00,45.6,43.1,30.09,West,280,4.0,7.0,91,0.00,,---,0.00,0.00,VWS V14.01,2013-05-06 00:26:00,
2013-05-06 02:30:00,45.6,43.1,30.09,West,278,5.0,7.0,91,0.00,,---,0.00,0.00,VWS V14.01,2013-05-06 00:30:00,
2013-05-06 02:31:00,45.6,43.1,30.09,West,278,3.0,5.0,91,0.00,,---,0.00,0.00,VWS V14.01,2013-05-06 00:31:00,
2013-05-06 02:35:00,45.6,43.1,30.09,West,278,5.0,5.0,91,0.00,,---,0.00,0.00,VWS V14.01,2013-05-06 00:35:00,
2013-05-06 02:36:00,45.6,43.1,30.09,West,278,3.0,5.0,91,0.00,,---,0.00,0.00,VWS V14.01,2013-05-06 00:36:00,
2013-05-06 02:40:00,45.5,43.0,30.09,West,278,2.0,5.0,91,0.00,,---,0.00,0.00,VWS V14.01,2013-05-06 00:40:00,
2013-05-06 02:41:00,45.5,43.0,30.09,West,278,4.0,5.0,91,0.00,,---,0.00,0.00,VWS V14.01,2013-05-06 00:41:00,
2013-05-06 02:45:00,45.4,42.9,30.09,West,277,4.0,5.0,91,0.00,,---,0.00,0.00,VWS V14.01,2013-05-06 00:45:00,
2013-05-06 02:46:00,45.4,42.9,30.09,West,277,3.0,4.0,91,0.00,,---,0.00,0.00,VWS V14.01,2013-05-06 00:46:00,
2013-05-06 02:50:00,45.3,42.8,30.09,West,281,2.0,6.0,91,0.00,,---,0.00,0.00,VWS V14.01,2013-05-06 00:50:00,
2013-05-06 02:55:00,45.3,42.8,30.09,WNW,283,4.0,6.0,91,0.00,,---,0.00,0.00,VWS V14.01,2013-05-06 00:55:00,
2013-05-06 03:00:00,45.2,42.7,30.09,West,281,4.0,5.0,91,0.00,,---,0.00,0.00,VWS V14.01,2013-05-06 01:00:00,
2013-05-06 03:05:00,45.1,42.6,30.09,West,279,5.0,6.0,91,0.00,,---,0.00,0.00,VWS V14.01,2013-05-06 01:05:00,
2013-05-06 03:06:00,45.1,42.6,30.09,West,279,6.0,6.0,91,0.00,,---,0.00,0.00,VWS V14.01,2013-05-06 01:06:00,
2013-05-06 03:10:00,45.2,42.7,30.09,WNW,289,5.0,7.0,91,0.00,,---,0.00,0.00,VWS V14.01,2013-05-06 01:10:00,
2013-05-06 03:11:00,45.3,42.8,30.08,WNW,288,5.0,7.0,91,0.00,,---,0.00,0.00,VWS V14.01,2013-05-06 01:11:00,
2013-05-06 03:15:00,45.4,42.9,30.09,WNW,285,5.0,7.0,91,0.00,,---,0.00,0.00,VWS V14.01,2013-05-06 01:15:00,
2013-05-06 03:16:00,45.4,42.9,30.08,WNW,292,3.0,5.0,91,0.00,,---,0.00,0.00,VWS V14.01,2013-05-06 01:16:00,
2013-05-06 03:20:00,45.3,42.8,30.09,WNW,289,4.0,5.0,91,0.00,,---,0.00,0.00,VWS V14.01,2013-05-06 01:20:00,
2013-05-06 03:21:00,45.3,42.8,30.08,WNW,287,3.0,5.0,91,0.00,,---,0.00,0.00,VWS V14.01,2013-05-06 01:21:00,
2013-05-06 03:25:00,45.2,42.7,30.08,West,281,4.0,6.0,91,0.00,,---,0.00,0.00,VWS V14.01,2013-05-06 01:25:00,
2013-05-06 03:26:00,45.2,42.7,30.08,West,281,3.0,5.0,91,0.00,,---,0.00,0.00,VWS V14.01,2013-05-06 01:26:00,
2013-05-06 03:30:00,45.1,42.6,30.09,West,281,4.0,5.0,91,0.00,,---,0.00,0.00,VWS V14.01,2013-05-06 01:30:00,
2013-05-06 03:31:00,45.0,42.5,30.09,West,281,5.0,5.0,91,0.00,,---,0.00,0.00,VWS V14.01,2013-05-06 01:31:00,
2013-05-06 03:35:00,45.0,42.5,30.09,West,280,4.0,6.0,91,0.00,,---,0.00,0.00,VWS V14.01,2013-05-06 01:35:00,
2013-05-06 03:36:00,44.9,42.4,30.08,West,281,4.0,4.0,91,0.00,,---,0.00,0.00,VWS V14.01,2013-05-06 01:36:00,
2013-05-06 03:40:00,44.8,42.3,30.08,West,280,4.0,5.0,91,0.00,,---,0.00,0.00,VWS V14.01,2013-05-06 01:40:00,
2013-05-06 03:41:00,44.8,42.3,30.08,West,280,3.0,4.0,91,0.00,,---,0.00,0.00,VWS V14.01,2013-05-06 01:41:00,
2013-05-06 03:45:00,44.7,42.2,30.08,West,280,4.0,5.0,91,0.00,,---,0.00,0.00,VWS V14.01,2013-05-06 01:45:00,
2013-05-06 03:46:00,44.7,42.2,30.08,West,280,5.0,5.0,91,0.00,,---,0.00,0.00,VWS V14.01,2013-05-06 01:46:00,
2013-05-06 03:50:00,44.6,42.1,30.08,West,279,4.0,6.0,91,0.00,,---,0.00,0.00,VWS V14.01,2013-05-06 01:50:00,
2013-05-06 03:51:00,44.5,42.0,30.08,West,279,1.0,4.0,91,0.00,,---,0.00,0.00,VWS V14.01,2013-05-06 01:51:00,
2013-05-06 03:55:00,44.5,42.0,30.08,West,279,2.0,4.0,91,0.00,,---,0.00,0.00,VWS V14.01,2013-05-06 01:55:00,
2013-05-06 03:56:00,44.5,42.0,30.08,West,279,2.0,2.0,91,0.00,,---,0.00,0.00,VWS V14.01,2013-05-06 01:56:00,
2013-05-06 04:00:00,44.4,41.9,30.08,West,280,5.0,5.0,91,0.00,,---,0.00,0.00,VWS V14.01,2013-05-06 02:00:00,
2013-05-06 04:01:00,44.4,41.9,30.08,West,280,3.0,5.0,91,0.00,,---,0.00,0.00,VWS V14.01,2013-05-06 02:01:00,
2013-05-06 04:05:00,44.4,41.9,30.08,West,280,2.0,5.0,91,0.00,,---,0.00,0.00,VWS V14.01,2013-05-06 02:05:00,
2013-05-06 04:06:00,44.4,41.9,30.08,West,280,4.0,4.0,91,0.00,,---,0.00,0.00,VWS V14.01,2013-05-06 02:06:00,
2013-05-06 04:10:00,44.3,42.1,30.08,West,279,5.0,6.0,92,0.00,,---,0.00,0.00,VWS V14.01,2013-05-06 02:10:00,
2013-05-06 04:11:00,44.3,42.1,30.08,West,279,4.0,6.0,92,0.00,,---,0.00,0.00,VWS V14.01,2013-05-06 02:11:00,
2013-05-06 04:15:00,44.2,42.0,30.08,West,279,5.0,6.0,92,0.00,,---,0.00,0.00,VWS V14.01,2013-05-06 02:15:00,
2013-05-06 04:16:00,44.2,42.0,30.08,West,280,5.0,6.0,92,0.00,,---,0.00,0.00,VWS V14.01,2013-05-06 02:16:00,
2013-05-06 04:20:00,44.2,42.0,30.08,West,281,5.0,7.0,92,0.00,,---,0.00,0.00,VWS V14.01,2013-05-06 02:20:00,
2013-05-06 04:21:00,44.2,42.0,30.08,WNW,282,4.0,6.0,92,0.00,,---,0.00,0.00,VWS V14.01,2013-05-06 02:21:00,
2013-05-06 04:25:00,44.2,42.0,30.08,West,281,6.0,6.0,92,0.00,,---,0.00,0.00,VWS V14.01,2013-05-06 02:25:00,
2013-05-06 04:26:00,44.2,42.0,30.08,West,281,4.0,6.0,92,0.00,,---,0.00,0.00,VWS V14.01,2013-05-06 02:26:00,
2013-05-06 04:30:00,44.3,42.1,30.08,WNW,283,4.0,7.0,92,0.00,,---,0.00,0.00,VWS V14.01,2013-05-06 02:30:00,
2013-05-06 04:31:00,44.3,42.1,30.08,WNW,283,3.0,4.0,92,0.00,,---,0.00,0.00,VWS V14.01,2013-05-06 02:31:00,
2013-05-06 04:35:00,44.3,42.1,30.08,WNW,283,0.0,4.0,92,0.00,,---,0.00,0.00,VWS V14.01,2013-05-06 02:35:00,
2013-05-06 04:36:00,44.3,42.1,30.08,WNW,283,2.0,2.0,92,0.00,,---,0.00,0.00,VWS V14.01,2013-05-06 02:36:00,
2013-05-06 04:40:00,44.2,42.0,30.08,WNW,282,3.0,6.0,92,0.00,,---,0.00,0.00,VWS V14.01,2013-05-06 02:40:00,
2013-05-06 04:41:00,44.2,42.0,30.08,WNW,283,5.0,6.0,92,0.00,,---,0.00,0.00,VWS V14.01,2013-05-06 02:41:00,
2013-05-06 04:45:00,44.1,41.9,30.08,WNW,282,4.0,6.0,92,0.00,,---,0.00,0.00,VWS V14.01,2013-05-06 02:45:00,
2013-05-06 04:46:00,44.1,41.9,30.08,WNW,282,4.0,5.0,92,0.00,,---,0.00,0.00,VWS V14.01,2013-05-06 02:46:00,
2013-05-06 04:50:00,44.1,41.9,30.08,WNW,282,5.0,5.0,92,0.00,,---,0.00,0.00,VWS V14.01,2013-05-06 02:50:00,
2013-05-06 04:55:00,44.0,41.8,30.08,WNW,282,3.0,6.0,92,0.00,,---,0.00,0.00,VWS V14.01,2013-05-06 02:55:00,
2013-05-06 05:00:00,44.0,41.8,30.08,West,281,5.0,6.0,92,0.00,,---,0.00,0.00,VWS V14.01,2013-05-06 03:00:00,
2013-05-06 05:05:00,43.9,41.7,30.08,West,281,4.0,6.0,92,0.00,,---,0.00,0.00,VWS V14.01,2013-05-06 03:05:00,
2013-05-06 05:06:00,43.9,41.7,30.08,West,281,5.0,6.0,92,0.00,,---,0.00,0.00,VWS V14.01,2013-05-06 03:06:00,
2013-05-06 05:10:00,43.9,41.7,30.07,West,281,4.0,6.0,92,0.00,,---,0.00,0.00,VWS V14.01,2013-05-06 03:10:00,
2013-05-06 05:11:00,43.9,41.7,30.07,West,281,4.0,5.0,92,0.00,,---,0.00,0.00,VWS V14.01,2013-05-06 03:11:00,
2013-05-06 05:15:00,43.8,41.6,30.07,West,281,4.0,6.0,92,0.00,,---,0.00,0.00,VWS V14.01,2013-05-06 03:15:00,
2013-05-06 05:16:00,43.7,41.5,30.07,West,281,4.0,5.0,92,0.00,,---,0.00,0.00,VWS V14.01,2013-05-06 03:16:00,
2013-05-06 05:20:00,43.7,41.5,30.07,West,281,4.0,6.0,92,0.00,,---,0.00,0.00,VWS V14.01,2013-05-06 03:20:00,
2013-05-06 05:21:00,43.6,41.4,30.07,West,281,4.0,4.0,92,0.00,,---,0.00,0.00,VWS V14.01,2013-05-06 03:21:00,
2013-05-06 05:25:00,43.6,41.4,30.07,West,281,2.0,5.0,92,0.00,,---,0.00,0.00,VWS V14.01,2013-05-06 03:25:00,
2013-05-06 05:26:00,43.5,41.3,30.07,West,281,4.0,4.0,92,0.00,,---,0.00,0.00,VWS V14.01,2013-05-06 03:26:00,
2013-05-06 05:30:00,43.5,41.3,30.07,West,281,3.0,7.0,92,0.00,,---,0.00,0.00,VWS V14.01,2013-05-06 03:30:00,
2013-05-06 05:35:00,43.5,41.3,30.07,West,281,4.0,7.0,92,0.00,,---,0.00,0.00,VWS V14.01,2013-05-06 03:35:00,
2013-05-06 05:40:00,43.5,41.3,30.07,West,281,4.0,7.0,92,0.00,,---,0.00,0.00,VWS V14.01,2013-05-06 03:40:00,
2013-05-06 05:45:00,43.5,41.3,30.07,WNW,284,4.0,7.0,92,0.00,,---,0.00,0.00,VWS V14.01,2013-05-06 03:45:00,
2013-05-06 05:50:00,43.5,41.3,30.07,WNW,284,3.0,4.0,92,0.00,,---,0.00,0.00,VWS V14.01,2013-05-06 03:50:00,
2013-05-06 05:55:00,43.5,41.3,30.07,WNW,284,0.0,0.0,92,0.00,,---,0.00,0.00,VWS V14.01,2013-05-06 03:55:00,
2013-05-06 06:00:00,43.4,41.2,30.07,WNW,284,4.0,4.0,92,0.00,,---,0.00,0.00,VWS V14.01,2013-05-06 04:00:00,
2013-05-06 06:05:00,43.4,41.2,30.07,WNW,282,5.0,7.0,92,0.00,,---,0.00,0.00,VWS V14.01,2013-05-06 04:05:00,
2013-05-06 06:10:00,43.3,41.1,30.07,West,281,3.0,5.0,92,0.00,,---,0.00,0.00,VWS V14.01,2013-05-06 04:10:00,
2013-05-06 06:15:00,43.3,41.1,30.07,West,281,3.0,5.0,92,0.00,,---,0.00,0.00,VWS V14.01,2013-05-06 04:15:00,
2013-05-06 06:20:00,43.2,41.0,30.07,West,281,0.0,2.0,92,0.00,,---,0.00,0.00,VWS V14.01,2013-05-06 04:20:00,
2013-05-06 06:25:00,43.1,40.9,30.07,West,281,4.0,4.0,92,0.00,,---,0.00,0.00,VWS V14.01,2013-05-06 04:25:00,
2013-05-06 06:30:00,43.0,40.8,30.07,West,281,3.0,6.0,92,0.00,,---,0.00,0.00,VWS V14.01,2013-05-06 04:30:00,
2013-05-06 06:35:00,43.1,40.9,30.07,WNW,284,4.0,7.0,92,0.00,,---,0.00,0.00,VWS V14.01,2013-05-06 04:35:00,
2013-05-06 06:36:00,43.1,40.9,30.07,WNW,284,6.0,6.0,92,0.00,,---,0.00,0.00,VWS V14.01,2013-05-06 04:36:00,
2013-05-06 06:40:00,43.2,41.0,30.07,WNW,284,5.0,6.0,92,0.00,,---,0.00,0.00,VWS V14.01,2013-05-06 04:40:00,
2013-05-06 06:41:00,43.2,41.0,30.07,WNW,284,4.0,5.0,92,0.00,,---,0.00,0.00,VWS V14.01,2013-05-06 04:41:00,
2013-05-06 06:45:00,43.1,40.9,30.07,WNW,284,3.0,6.0,92,0.00,,---,0.00,7.00,VWS V14.01,2013-05-06 04:45:00,
2013-05-06 06:46:00,43.1,40.9,30.07,WNW,284,3.0,4.0,92,0.00,,---,0.00,7.00,VWS V14.01,2013-05-06 04:46:00,
2013-05-06 06:50:00,42.9,40.7,30.07,WNW,283,3.0,7.0,92,0.00,,---,0.00,9.00,VWS V14.01,2013-05-06 04:50:00,
2013-05-06 06:51:00,42.9,40.7,30.07,WNW,283,4.0,5.0,92,0.00,,---,0.00,11.00,VWS V14.01,2013-05-06 04:51:00,
2013-05-06 06:55:00,42.9,40.7,30.07,WNW,283,3.0,6.0,92,0.00,,---,0.00,12.00,VWS V14.01,2013-05-06 04:55:00,
2013-05-06 06:56:00,42.8,40.6,30.07,WNW,283,4.0,5.0,92,0.00,,---,0.00,12.00,VWS V14.01,2013-05-06 04:56:00,
2013-05-06 07:00:00,42.7,40.5,30.07,WNW,283,3.0,5.0,92,0.00,,---,0.00,14.00,VWS V14.01,2013-05-06 05:00:00,
2013-05-06 07:01:00,42.7,40.5,30.08,WNW,283,3.0,4.0,92,0.00,,---,0.00,16.00,VWS V14.01,2013-05-06 05:01:00,
2013-05-06 07:05:00,42.7,40.5,30.07,WNW,283,3.0,5.0,92,0.00,,---,0.00,18.00,VWS V14.01,2013-05-06 05:05:00,
2013-05-06 07:06:00,42.7,40.5,30.08,WNW,283,4.0,4.0,92,0.00,,---,0.00,19.00,VWS V14.01,2013-05-06 05:06:00,
2013-05-06 07:10:00,42.7,40.5,30.07,WNW,283,3.0,5.0,92,0.00,,---,0.00,21.00,VWS V14.01,2013-05-06 05:10:00,
2013-05-06 07:11:00,42.7,40.5,30.08,WNW,283,4.0,5.0,92,0.00,,---,0.00,21.00,VWS V14.01,2013-05-06 05:11:00,
2013-05-06 07:15:00,42.6,40.4,30.08,WNW,283,5.0,6.0,92,0.00,,---,0.00,23.00,VWS V14.01,2013-05-06 05:15:00,
2013-05-06 07:20:00,42.7,40.5,30.08,WNW,284,5.0,7.0,92,0.00,,---,0.00,54.00,VWS V14.01,2013-05-06 05:20:00,
2013-05-06 07:25:00,42.9,41.0,30.08,WNW,288,3.0,7.0,93,0.00,,---,0.00,67.00,VWS V14.01,2013-05-06 05:25:00,
2013-05-06 07:30:00,43.1,40.9,30.08,WNW,288,5.0,6.0,92,0.00,,---,0.00,81.00,VWS V14.01,2013-05-06 05:30:00,
2013-05-06 07:35:00,43.2,41.0,30.08,WNW,286,4.0,7.0,92,0.00,,---,0.00,97.00,VWS V14.01,2013-05-06 05:35:00,
2013-05-06 07:36:00,43.3,41.1,30.08,WNW,286,6.0,6.0,92,0.00,,---,0.00,102.00,VWS V14.01,2013-05-06 05:36:00,
2013-05-06 07:40:00,43.5,41.3,30.08,WNW,287,4.0,7.0,92,0.00,,---,0.00,113.00,VWS V14.01,2013-05-06 05:40:00,
2013-05-06 07:41:00,43.6,41.4,30.08,WNW,287,4.0,5.0,92,0.00,,---,0.00,118.00,VWS V14.01,2013-05-06 05:41:00,
2013-05-06 07:45:00,43.8,41.6,30.07,WNW,287,4.0,6.0,92,0.00,,---,0.00,134.00,VWS V14.01,2013-05-06 05:45:00,
2013-05-06 07:46:00,43.9,41.7,30.08,WNW,287,5.0,6.0,92,0.00,,---,0.00,137.00,VWS V14.01,2013-05-06 05:46:00,
2013-05-06 07:50:00,44.1,41.7,30.08,WNW,286,4.0,6.0,91,0.00,,---,0.00,155.00,VWS V14.01,2013-05-06 05:50:00,
2013-05-06 07:51:00,44.2,41.7,30.08,WNW,286,4.0,5.0,91,0.00,,---,0.00,158.00,VWS V14.01,2013-05-06 05:51:00,
2013-05-06 07:55:00,44.6,42.1,30.08,WNW,286,3.0,5.0,91,0.00,,---,0.00,176.00,VWS V14.01,2013-05-06 05:55:00,
2013-05-06 08:00:00,45.1,42.6,30.08,WNW,288,2.0,6.0,91,0.00,,---,0.00,192.00,VWS V14.01,2013-05-06 06:00:00,
2013-05-06 08:05:00,45.7,42.9,30.08,WNW,288,3.0,5.0,90,0.00,,---,0.00,207.00,VWS V14.01,2013-05-06 06:05:00,
2013-05-06 08:06:00,45.9,42.8,30.08,WNW,288,3.0,4.0,89,0.00,,---,0.00,211.00,VWS V14.01,2013-05-06 06:06:00,
2013-05-06 08:10:00,46.3,43.2,30.08,WNW,288,1.0,4.0,89,0.00,,---,0.00,216.00,VWS V14.01,2013-05-06 06:10:00,
2013-05-06 08:11:00,46.4,43.3,30.08,WNW,288,3.0,5.0,89,0.00,,---,0.00,214.00,VWS V14.01,2013-05-06 06:11:00,
2013-05-06 08:15:00,46.9,43.5,30.08,WNW,288,3.0,5.0,88,0.00,,---,0.00,221.00,VWS V14.01,2013-05-06 06:15:00,
2013-05-06 08:16:00,47.1,43.4,30.08,WNW,288,4.0,5.0,87,0.00,,---,0.00,199.00,VWS V14.01,2013-05-06 06:16:00,
2013-05-06 08:20:00,47.7,44.0,30.08,WNW,289,3.0,5.0,87,0.00,,---,0.00,207.00,VWS V14.01,2013-05-06 06:20:00,
2013-05-06 08:21:00,47.9,43.9,30.08,WNW,289,3.0,5.0,86,0.00,,---,0.00,223.00,VWS V14.01,2013-05-06 06:21:00,
2013-05-06 08:25:00,48.5,44.2,30.08,WNW,289,0.0,5.0,85,0.00,,---,0.00,237.00,VWS V14.01,2013-05-06 06:25:00,
2013-05-06 08:26:00,48.8,44.8,30.08,WNW,289,0.0,0.0,86,0.00,,---,0.00,237.00,VWS V14.01,2013-05-06 06:26:00,
2013-05-06 08:30:00,49.6,45.3,30.08,WNW,289,0.0,4.0,85,0.00,,---,0.00,272.00,VWS V14.01,2013-05-06 06:30:00,
2013-05-06 08:31:00,50.0,45.7,30.08,WNW,289,0.0,0.0,85,0.00,,---,0.00,276.00,VWS V14.01,2013-05-06 06:31:00,
2013-05-06 08:35:00,50.9,46.6,30.08,WNW,289,0.0,0.0,85,0.00,,---,0.00,287.00,VWS V14.01,2013-05-06 06:35:00,
2013-05-06 08:36:00,51.1,46.8,30.08,WNW,289,0.0,0.0,85,0.00,,---,0.00,292.00,VWS V14.01,2013-05-06 06:36:00,
2013-05-06 08:40:00,51.6,46.6,30.08,WNW,289,0.0,3.0,83,0.00,,---,0.00,302.00,VWS V14.01,2013-05-06 06:40:00,
2013-05-06 08:41:00,51.8,46.8,30.08,WNW,289,0.0,3.0,83,0.00,,---,0.00,309.00,VWS V14.01,2013-05-06 06:41:00,
2013-05-06 08:45:00,52.2,46.9,30.08,WNW,289,1.0,3.0,82,0.00,,---,0.00,322.00,VWS V14.01,2013-05-06 06:45:00,
2013-05-06 08:46:00,52.4,47.1,30.08,WNW,289,2.0,3.0,82,0.00,,---,0.00,327.00,VWS V14.01,2013-05-06 06:46:00,
2013-05-06 08:50:00,52.9,47.2,30.08,WNW,289,2.0,3.0,81,0.00,,---,0.00,336.00,VWS V14.01,2013-05-06 06:50:00,
2013-05-06 08:51:00,53.2,47.2,30.08,WNW,289,0.0,3.0,80,0.00,,---,0.00,343.00,VWS V14.01,2013-05-06 06:51:00,
2013-05-06 08:55:00,53.8,47.8,30.08,WNW,289,2.0,3.0,80,0.00,,---,0.00,353.00,VWS V14.01,2013-05-06 06:55:00,
2013-05-06 09:00:00,54.8,47.7,30.08,WNW,289,0.0,3.0,77,0.00,,---,0.00,369.00,VWS V14.01,2013-05-06 07:00:00,
2013-05-06 09:07:00,56.8,47.9,30.08,West,279,0.0,6.0,72,0.00,,---,0.00,390.00,VWS V14.01,2013-05-06 07:07:00,
2013-05-06 09:10:00,57.3,48.4,30.08,NW,311,1.0,6.0,72,0.00,,---,0.00,399.00,VWS V14.01,2013-05-06 07:10:00,
2013-05-06 09:12:00,58.2,48.5,30.08,WNW,294,1.0,3.0,70,0.00,,---,0.00,406.00,VWS V14.01,2013-05-06 07:12:00,
2013-05-06 09:15:00,59.3,48.8,30.08,North,5,0.0,3.0,68,0.00,,---,0.00,415.00,VWS V14.01,2013-05-06 07:15:00,
2013-05-06 09:17:00,60.0,49.0,30.08,North,5,0.0,2.0,67,0.00,,---,0.00,424.00,VWS V14.01,2013-05-06 07:17:00,
2013-05-06 09:20:00,60.9,49.1,30.08,North,5,0.0,2.0,65,0.00,,---,0.00,432.00,VWS V14.01,2013-05-06 07:20:00,
2013-05-06 09:22:00,61.4,49.5,30.08,North,5,0.0,0.0,65,0.00,,---,0.00,439.00,VWS V14.01,2013-05-06 07:22:00,
2013-05-06 09:25:00,61.9,49.6,30.08,North,5,0.0,1.0,64,0.00,,---,0.00,450.00,VWS V14.01,2013-05-06 07:25:00,
2013-05-06 09:27:00,62.4,49.2,30.08,North,5,1.0,2.0,62,0.00,,---,0.00,461.00,VWS V14.01,2013-05-06 07:27:00,
2013-05-06 09:30:00,63.2,48.7,30.07,NNE,13,2.0,2.0,59,0.00,,---,0.00,468.00,VWS V14.01,2013-05-06 07:30:00,
2013-05-06 09:32:00,63.8,48.3,30.08,SSW,209,1.0,3.0,57,0.00,,---,0.00,473.00,VWS V14.01,2013-05-06 07:32:00,
2013-05-06 09:35:00,64.3,47.3,30.08,South,172,1.0,3.0,54,0.00,,---,0.00,485.00,VWS V14.01,2013-05-06 07:35:00,
2013-05-06 09:40:00,65.3,46.2,30.07,East,96,2.0,3.0,50,0.00,,---,0.00,497.00,VWS V14.01,2013-05-06 07:40:00,
2013-05-06 09:45:00,66.1,46.9,30.07,East,96,2.0,5.0,50,0.00,,---,0.00,513.00,VWS V14.01,2013-05-06 07:45:00,
2013-05-06 09:50:00,66.4,47.7,30.08,ESE,109,2.0,4.0,51,0.00,,---,0.00,529.00,VWS V14.01,2013-05-06 07:50:00,
2013-05-06 09:55:00,66.5,49.4,30.08,SSE,148,4.0,6.0,54,0.00,,---,0.00,545.00,VWS V14.01,2013-05-06 07:55:00,
2013-05-06 09:57:00,66.3,48.7,30.08,SE,132,3.0,6.0,53,0.00,,---,0.00,554.00,VWS V14.01,2013-05-06 07:57:00,
2013-05-06 10:00:00,66.1,48.5,30.07,ESE,121,3.0,6.0,53,0.00,,---,0.00,561.00,VWS V14.01,2013-05-06 08:00:00,
2013-05-06 10:02:00,66.1,48.5,30.07,East,91,2.0,5.0,53,0.00,,---,0.00,563.00,VWS V14.01,2013-05-06 08:02:00,
2013-05-06 10:05:00,66.2,48.6,30.07,East,90,3.0,6.0,53,0.00,,---,0.00,575.00,VWS V14.01,2013-05-06 08:05:00,
2013-05-06 10:07:00,66.2,48.1,30.07,ESE,103,3.0,5.0,52,0.00,,---,0.00,580.00,VWS V14.01,2013-05-06 08:07:00,
2013-05-06 10:10:00,66.4,48.8,30.07,ESE,120,2.0,5.0,53,0.00,,---,0.00,589.00,VWS V14.01,2013-05-06 08:10:00,
2013-05-06 10:12:00,66.6,48.4,30.07,SE,145,4.0,5.0,52,0.00,,---,0.00,591.00,VWS V14.01,2013-05-06 08:12:00,
2013-05-06 10:15:00,66.7,48.5,30.07,SE,140,1.0,5.0,52,0.00,,---,0.00,601.00,VWS V14.01,2013-05-06 08:15:00,
2013-05-06 10:17:00,66.7,48.0,30.07,SSE,158,4.0,4.0,51,0.00,,---,0.00,606.00,VWS V14.01,2013-05-06 08:17:00,
2013-05-06 10:20:00,66.7,47.5,30.07,SE,129,5.0,6.0,50,0.00,,---,0.00,615.00,VWS V14.01,2013-05-06 08:20:00,
2013-05-06 10:22:00,66.7,47.5,30.07,SE,124,3.0,6.0,50,0.00,,---,0.00,622.00,VWS V14.01,2013-05-06 08:22:00,
2013-05-06 10:25:00,66.9,47.1,30.07,SE,132,4.0,6.0,49,0.00,,---,0.00,631.00,VWS V14.01,2013-05-06 08:25:00,
2013-05-06 10:27:00,67.0,47.2,30.07,ESE,123,4.0,5.0,49,0.00,,---,0.00,638.00,VWS V14.01,2013-05-06 08:27:00,
2013-05-06 10:30:00,67.1,46.2,30.07,SE,146,2.0,5.0,47,0.00,,---,0.00,643.00,VWS V14.01,2013-05-06 08:30:00,
2013-05-06 10:32:00,67.3,45.8,30.07,SSE,148,0.0,2.0,46,0.00,,---,0.00,652.00,VWS V14.01,2013-05-06 08:32:00,
2013-05-06 10:35:00,67.6,44.9,30.07,South,191,2.0,2.0,44,0.00,,---,0.00,659.00,VWS V14.01,2013-05-06 08:35:00,
2013-05-06 10:40:00,67.9,42.7,30.07,WSW,250,7.0,8.0,40,0.00,,---,0.00,673.00,VWS V14.01,2013-05-06 08:40:00,
2013-05-06 10:45:00,67.6,43.7,30.07,WSW,241,6.0,8.0,42,0.00,,---,0.00,686.00,VWS V14.01,2013-05-06 08:45:00,
2013-05-06 10:46:00,67.5,41.7,30.07,SSW,207,6.0,7.0,39,0.00,,---,0.00,687.00,VWS V14.01,2013-05-06 08:46:00,
2013-05-06 10:50:00,67.3,42.8,30.07,WSW,254,2.0,7.0,41,0.00,,---,0.00,700.00,VWS V14.01,2013-05-06 08:50:00,
2013-05-06 10:51:00,67.4,43.5,30.07,WNW,291,2.0,6.0,42,0.00,,---,0.00,701.00,VWS V14.01,2013-05-06 08:51:00,
2013-05-06 10:55:00,67.7,43.8,30.07,SSW,213,3.0,7.0,42,0.00,,---,0.00,710.00,VWS V14.01,2013-05-06 08:55:00,
2013-05-06 10:56:00,67.8,43.9,30.07,SW,217,0.0,3.0,42,0.00,,---,0.00,715.00,VWS V14.01,2013-05-06 08:56:00,
2013-05-06 11:00:00,68.1,43.5,30.07,West,267,6.0,9.0,41,0.00,,---,0.00,721.00,VWS V14.01,2013-05-06 09:00:00,
2013-05-06 11:01:00,68.1,44.2,30.07,West,269,6.0,6.0,42,0.00,,---,0.00,726.00,VWS V14.01,2013-05-06 09:01:00,
2013-05-06 11:05:00,67.9,43.4,30.07,West,273,2.0,7.0,41,0.00,,---,0.00,731.00,VWS V14.01,2013-05-06 09:05:00,
2013-05-06 11:06:00,68.0,43.5,30.07,WSW,245,1.0,5.0,41,0.00,,---,0.00,735.00,VWS V14.01,2013-05-06 09:06:00,
2013-05-06 11:10:00,68.1,44.2,30.07,West,261,6.0,10.0,42,0.00,,---,0.00,744.00,VWS V14.01,2013-05-06 09:10:00,
2013-05-06 11:11:00,68.1,44.2,30.07,SW,219,5.0,10.0,42,0.00,,---,0.00,747.00,VWS V14.01,2013-05-06 09:11:00,
2013-05-06 11:15:00,68.3,44.3,30.07,West,263,6.0,10.0,42,0.00,,---,0.00,754.00,VWS V14.01,2013-05-06 09:15:00,
2013-05-06 11:16:00,68.2,43.6,30.07,WSW,242,9.0,11.0,41,0.00,,---,0.00,758.00,VWS V14.01,2013-05-06 09:16:00,
2013-05-06 11:20:00,68.0,44.1,30.07,West,259,9.0,11.0,42,0.00,,---,0.00,763.00,VWS V14.01,2013-05-06 09:20:00,
2013-05-06 11:21:00,68.1,44.8,30.07,SW,230,6.0,9.0,43,0.00,,---,0.00,765.00,VWS V14.01,2013-05-06 09:21:00,
2013-05-06 11:25:00,68.1,44.2,30.07,WSW,245,11.0,13.0,42,0.00,,---,0.00,772.00,VWS V14.01,2013-05-06 09:25:00,
2013-05-06 11:26:00,68.1,45.4,30.07,WSW,254,7.0,11.0,44,0.00,,---,0.00,775.00,VWS V14.01,2013-05-06 09:26:00,
2013-05-06 11:30:00,68.1,43.5,30.07,WSW,254,11.0,12.0,41,0.00,,---,0.00,782.00,VWS V14.01,2013-05-06 09:30:00,
2013-05-06 11:31:00,68.0,44.7,30.07,SSW,211,1.0,11.0,43,0.00,,---,0.00,782.00,VWS V14.01,2013-05-06 09:31:00,
2013-05-06 11:35:00,68.4,45.0,30.07,WSW,237,7.0,11.0,43,0.00,,---,0.00,788.00,VWS V14.01,2013-05-06 09:35:00,
2013-05-06 11:36:00,68.5,44.5,30.07,West,259,8.0,13.0,42,0.00,,---,0.00,793.00,VWS V14.01,2013-05-06 09:36:00,
2013-05-06 11:40:00,68.2,44.3,30.07,SSW,208,5.0,13.0,42,0.00,,---,0.00,805.00,VWS V14.01,2013-05-06 09:40:00,
2013-05-06 11:41:00,68.2,44.9,30.07,NW,308,10.0,11.0,43,0.00,,---,0.00,807.00,VWS V14.01,2013-05-06 09:41:00,
2013-05-06 11:45:00,68.6,45.2,30.07,SW,227,4.0,13.0,43,0.00,,---,0.00,816.00,VWS V14.01,2013-05-06 09:45:00,
2013-05-06 11:46:00,68.5,43.9,30.07,SW,220,5.0,7.0,41,0.00,,---,0.00,821.00,VWS V14.01,2013-05-06 09:46:00,
2013-05-06 11:50:00,68.5,43.2,30.07,WSW,245,6.0,12.0,40,0.00,,---,0.00,830.00,VWS V14.01,2013-05-06 09:50:00,
2013-05-06 11:51:00,68.5,43.9,30.07,SW,228,5.0,8.0,41,0.00,,---,0.00,831.00,VWS V14.01,2013-05-06 09:51:00,
2013-05-06 11:55:00,68.7,44.1,30.07,WSW,240,5.0,11.0,41,0.00,,---,0.00,837.00,VWS V14.01,2013-05-06 09:55:00,
2013-05-06 11:56:00,68.8,44.2,30.07,WSW,248,3.0,6.0,41,0.00,,---,0.00,840.00,VWS V14.01,2013-05-06 09:56:00,
2013-05-06 12:00:00,69.3,43.3,30.07,SW,228,4.0,10.0,39,0.00,,---,0.00,846.00,VWS V14.01,2013-05-06 10:00:00,
2013-05-06 12:01:00,69.2,43.9,30.07,West,261,2.0,6.0,40,0.00,,---,0.00,849.00,VWS V14.01,2013-05-06 10:01:00,
2013-05-06 12:05:00,69.3,43.3,30.07,SE,144,9.0,9.0,39,0.00,,---,0.00,854.00,VWS V14.01,2013-05-06 10:05:00,
2013-05-06 12:06:00,69.3,42.6,30.07,South,184,0.0,10.0,38,0.00,,---,0.00,856.00,VWS V14.01,2013-05-06 10:06:00,
2013-05-06 12:10:00,69.3,42.6,30.07,WSW,238,4.0,10.0,38,0.00,,---,0.00,863.00,VWS V14.01,2013-05-06 10:10:00,
2013-05-06 12:11:00,69.2,43.2,30.07,SSW,211,5.0,8.0,39,0.00,,---,0.00,865.00,VWS V14.01,2013-05-06 10:11:00,
2013-05-06 12:15:00,69.6,42.2,30.07,West,262,5.0,8.0,37,0.00,,---,0.00,872.00,VWS V14.01,2013-05-06 10:15:00,
2013-05-06 12:16:00,69.5,42.1,30.07,WSW,246,5.0,7.0,37,0.00,,---,0.00,874.00,VWS V14.01,2013-05-06 10:16:00,
2013-05-06 12:20:00,69.4,41.3,30.06,SW,223,2.0,7.0,36,0.00,,---,0.00,881.00,VWS V14.01,2013-05-06 10:20:00,
2013-05-06 12:21:00,69.6,42.9,30.07,South,175,4.0,4.0,38,0.00,,---,0.00,884.00,VWS V14.01,2013-05-06 10:21:00,
2013-05-06 12:25:00,70.0,43.9,30.07,WSW,253,3.0,4.0,39,0.00,,---,0.00,889.00,VWS V14.01,2013-05-06 10:25:00,
2013-05-06 12:26:00,70.4,44.3,30.06,SW,228,5.0,5.0,39,0.00,,---,0.00,889.00,VWS V14.01,2013-05-06 10:26:00,
2013-05-06 12:30:00,70.7,43.2,30.06,SW,228,3.0,5.0,37,0.00,,---,0.00,896.00,VWS V14.01,2013-05-06 10:30:00,
2013-05-06 12:31:00,70.9,42.6,30.06,ESE,119,8.0,8.0,36,0.00,,---,0.00,900.00,VWS V14.01,2013-05-06 10:31:00,
2013-05-06 12:35:00,71.2,42.2,30.06,ESE,105,3.0,8.0,35,0.00,,---,0.00,905.00,VWS V14.01,2013-05-06 10:35:00,
2013-05-06 12:36:00,71.1,42.8,30.06,SE,130,5.0,5.0,36,0.00,,---,0.00,907.00,VWS V14.01,2013-05-06 10:36:00,
2013-05-06 12:40:00,71.0,41.2,30.06,ESE,122,2.0,7.0,34,0.00,,---,0.00,912.00,VWS V14.01,2013-05-06 10:40:00,
2013-05-06 12:41:00,70.9,40.4,30.06,SE,125,3.0,5.0,33,0.00,,---,0.00,914.00,VWS V14.01,2013-05-06 10:41:00,
2013-05-06 12:45:00,70.6,40.9,30.06,SE,127,1.0,5.0,34,0.00,,---,0.00,918.00,VWS V14.01,2013-05-06 10:45:00,
2013-05-06 12:46:00,70.7,41.7,30.06,NNW,331,4.0,4.0,35,0.00,,---,0.00,921.00,VWS V14.01,2013-05-06 10:46:00,
2013-05-06 12:50:00,71.0,41.2,30.06,West,280,5.0,6.0,34,0.00,,---,0.00,925.00,VWS V14.01,2013-05-06 10:50:00,
2013-05-06 12:51:00,71.2,41.4,30.06,SW,231,6.0,6.0,34,0.00,,---,0.00,926.00,VWS V14.01,2013-05-06 10:51:00,
2013-05-06 12:55:00,71.0,40.5,30.06,West,272,3.0,6.0,33,0.00,,---,0.00,925.00,VWS V14.01,2013-05-06 10:55:00,
2013-05-06 12:56:00,71.1,39.8,30.06,West,272,0.0,3.0,32,0.00,,---,0.00,926.00,VWS V14.01,2013-05-06 10:56:00,
2013-05-06 13:00:00,71.0,38.9,30.06,WSW,254,3.0,4.0,31,0.00,,---,0.00,932.00,VWS V14.01,2013-05-06 11:00:00,
2013-05-06 13:02:00,70.9,38.0,30.05,West,259,0.0,5.0,30,0.00,,---,0.00,935.00,VWS V14.01,2013-05-06 11:02:00,
2013-05-06 13:05:00,71.2,39.9,30.05,ESE,110,4.0,5.0,32,0.00,,---,0.00,933.00,VWS V14.01,2013-05-06 11:05:00,
2013-05-06 13:06:00,71.4,39.2,30.05,West,266,4.0,4.0,31,0.00,,---,0.00,937.00,VWS V14.01,2013-05-06 11:06:00,
2013-05-06 13:10:00,72.1,40.7,30.05,West,267,5.0,6.0,32,0.00,,---,0.00,935.00,VWS V14.01,2013-05-06 11:10:00,
2013-05-06 13:11:00,72.1,41.4,30.05,West,261,4.0,7.0,33,0.00,,---,0.00,937.00,VWS V14.01,2013-05-06 11:11:00,
2013-05-06 13:15:00,72.1,40.7,30.05,SW,217,2.0,7.0,32,0.00,,---,0.00,937.00,VWS V14.01,2013-05-06 11:15:00,
2013-05-06 13:17:00,72.1,40.7,30.05,SW,217,1.0,3.0,32,0.00,,---,0.00,450.00,VWS V14.01,2013-05-06 11:17:00,
2013-05-06 13:20:00,72.5,41.8,30.05,NE,40,4.0,7.0,33,0.00,,---,0.00,949.00,VWS V14.01,2013-05-06 11:20:00,
2013-05-06 13:22:00,72.5,41.0,30.05,NNE,32,4.0,5.0,32,0.00,,---,0.00,953.00,VWS V14.01,2013-05-06 11:22:00,
2013-05-06 13:25:00,72.4,42.5,30.05,ENE,74,3.0,7.0,34,0.00,,---,0.00,944.00,VWS V14.01,2013-05-06 11:25:00,
2013-05-06 13:27:00,72.3,44.6,30.05,ESE,105,7.0,7.0,37,0.00,,---,0.00,942.00,VWS V14.01,2013-05-06 11:27:00,
2013-05-06 13:30:00,72.1,44.4,30.05,ESE,108,3.0,9.0,37,0.00,,---,0.00,969.00,VWS V14.01,2013-05-06 11:30:00,
2013-05-06 13:32:00,72.3,45.3,30.05,ESE,105,9.0,10.0,38,0.00,,---,0.00,969.00,VWS V14.01,2013-05-06 11:32:00,
2013-05-06 13:35:00,72.5,46.2,30.05,ESE,102,10.0,10.0,39,0.00,,---,0.00,949.00,VWS V14.01,2013-05-06 11:35:00,
2013-05-06 13:37:00,72.6,44.9,30.05,ESE,114,9.0,13.0,37,0.00,,---,0.00,918.00,VWS V14.01,2013-05-06 11:37:00,
2013-05-06 13:40:00,72.5,44.8,30.05,ESE,115,1.0,13.0,37,0.00,,---,0.00,984.00,VWS V14.01,2013-05-06 11:40:00,
2013-05-06 13:42:00,72.4,44.7,30.05,SE,135,4.0,7.0,37,0.00,,---,0.00,172.00,VWS V14.01,2013-05-06 11:42:00,
2013-05-06 13:45:00,72.0,44.3,30.04,ENE,73,3.0,9.0,37,0.00,,---,0.00,132.00,VWS V14.01,2013-05-06 11:45:00,
2013-05-06 13:47:00,71.6,44.7,30.04,ENE,67,4.0,5.0,38,0.00,,---,0.00,123.00,VWS V14.01,2013-05-06 11:47:00,
2013-05-06 13:50:00,71.3,43.0,30.04,ENE,61,0.0,5.0,36,0.00,,---,0.00,171.00,VWS V14.01,2013-05-06 11:50:00,
2013-05-06 13:52:00,71.9,44.9,30.04,ENE,61,0.0,0.0,38,0.00,,---,0.00,171.00,VWS V14.01,2013-05-06 11:52:00,
2013-05-06 13:55:00,72.5,44.1,30.04,East,88,5.0,5.0,36,0.00,,---,0.00,928.00,VWS V14.01,2013-05-06 11:55:00,
2013-05-06 13:57:00,72.9,43.7,30.04,ESE,107,3.0,9.0,35,0.00,,---,0.00,1009.00,VWS V14.01,2013-05-06 11:57:00,
2013-05-06 14:00:00,72.8,43.6,30.04,SE,132,12.0,13.0,35,0.00,,---,0.00,1004.00,VWS V14.01,2013-05-06 12:00:00,
2013-05-06 14:02:00,72.9,42.1,30.04,East,94,5.0,14.0,33,0.00,,---,0.00,1035.00,VWS V14.01,2013-05-06 12:02:00,
2013-05-06 14:05:00,73.0,43.0,30.04,ENE,73,8.0,14.0,34,0.00,,---,0.00,1023.00,VWS V14.01,2013-05-06 12:05:00,
2013-05-06 14:07:00,73.2,43.2,30.04,SSE,162,5.0,11.0,34,0.00,,---,0.00,1011.00,VWS V14.01,2013-05-06 12:07:00,
2013-05-06 14:10:00,72.6,41.1,30.04,SW,232,6.0,13.0,32,0.00,,---,0.00,1018.00,VWS V14.01,2013-05-06 12:10:00,
2013-05-06 14:12:00,72.5,41.8,30.03,West,277,5.0,7.0,33,0.00,,---,0.00,1014.00,VWS V14.01,2013-05-06 12:12:00,
2013-05-06 14:15:00,72.8,42.0,30.03,SW,224,6.0,7.0,33,0.00,,---,0.00,1039.00,VWS V14.01,2013-05-06 12:15:00,
2013-05-06 14:21:00,72.9,41.3,30.03,East,94,2.0,7.0,32,0.00,,---,0.00,1016.00,VWS V14.01,2013-05-06 12:21:00,
2013-05-06 14:25:00,73.3,41.7,30.03,ESE,104,3.0,7.0,32,0.00,,---,0.00,1039.00,VWS V14.01,2013-05-06 12:25:00,
2013-05-06 14:26:00,73.2,42.4,30.03,East,98,7.0,9.0,33,0.00,,---,0.00,1034.00,VWS V14.01,2013-05-06 12:26:00,
2013-05-06 14:30:00,73.9,44.5,30.03,East,80,5.0,9.0,35,0.00,,---,0.00,1005.00,VWS V14.01,2013-05-06 12:30:00,
2013-05-06 14:31:00,74.2,44.1,30.03,East,86,5.0,6.0,34,0.00,,---,0.00,988.00,VWS V14.01,2013-05-06 12:31:00,
2013-05-06 14:35:00,74.5,45.1,30.03,ESE,112,5.0,7.0,35,0.00,,---,0.00,1009.00,VWS V14.01,2013-05-06 12:35:00,
2013-05-06 14:37:00,74.6,43.6,30.03,SSE,167,4.0,6.0,33,0.00,,---,0.00,1021.00,VWS V14.01,2013-05-06 12:37:00,
2013-05-06 14:40:00,73.9,41.4,30.03,SE,142,6.0,13.0,31,0.00,,---,0.00,988.00,VWS V14.01,2013-05-06 12:40:00,
2013-05-06 14:45:00,73.7,42.0,30.03,ENE,74,2.0,9.0,32,0.00,,---,0.00,1023.00,VWS V14.01,2013-05-06 12:45:00,
2013-05-06 14:50:00,74.3,43.4,30.03,East,88,6.0,13.0,33,0.00,,---,0.00,1021.00,VWS V14.01,2013-05-06 12:50:00,
2013-05-06 14:55:00,74.4,42.7,30.02,East,86,3.0,7.0,32,0.00,,---,0.00,1023.00,VWS V14.01,2013-05-06 12:55:00,
2013-05-06 14:56:00,74.5,42.7,30.02,ENE,67,5.0,8.0,32,0.00,,---,0.00,1005.00,VWS V14.01,2013-05-06 12:56:00,
2013-05-06 15:00:00,74.7,43.7,30.02,NNE,21,2.0,8.0,33,0.00,,---,0.00,1005.00,VWS V14.01,2013-05-06 13:00:00,
2013-05-06 15:01:00,74.4,41.0,30.02,NE,36,0.0,2.0,30,0.00,,---,0.00,1013.00,VWS V14.01,2013-05-06 13:01:00,
2013-05-06 15:05:00,74.8,43.0,30.02,East,89,2.0,4.0,32,0.00,,---,0.00,1000.00,VWS V14.01,2013-05-06 13:05:00,
2013-05-06 15:06:00,75.5,44.4,30.02,SE,126,3.0,3.0,33,0.00,,---,0.00,983.00,VWS V14.01,2013-05-06 13:06:00,
2013-05-06 15:10:00,75.5,41.9,30.02,NNE,13,5.0,9.0,30,0.00,,---,0.00,970.00,VWS V14.01,2013-05-06 13:10:00,
2013-05-06 15:15:00,75.2,42.5,30.02,East,82,7.0,13.0,31,0.00,,---,0.00,967.00,VWS V14.01,2013-05-06 13:15:00,
2013-05-06 15:20:00,75.2,42.5,30.02,ESE,119,12.0,14.0,31,0.00,,---,0.00,977.00,VWS V14.01,2013-05-06 13:20:00,
2013-05-06 15:21:00,74.9,41.4,30.02,SE,126,10.0,12.0,30,0.00,,---,0.00,997.00,VWS V14.01,2013-05-06 13:21:00,
2013-05-06 15:25:00,74.6,44.4,30.02,ESE,103,8.0,12.0,34,0.00,,---,0.00,995.00,VWS V14.01,2013-05-06 13:25:00,
2013-05-06 15:26:00,74.7,44.5,30.02,ESE,103,5.0,12.0,34,0.00,,---,0.00,1002.00,VWS V14.01,2013-05-06 13:26:00,
2013-05-06 15:30:00,74.6,45.2,30.02,ESE,104,5.0,12.0,35,0.00,,---,0.00,381.00,VWS V14.01,2013-05-06 13:30:00,
2013-05-06 15:31:00,74.5,42.7,30.02,East,87,8.0,10.0,32,0.00,,---,0.00,1032.00,VWS V14.01,2013-05-06 13:31:00,
2013-05-06 15:35:00,74.3,45.7,30.02,SE,141,6.0,15.0,36,0.00,,---,0.00,1021.00,VWS V14.01,2013-05-06 13:35:00,
2013-05-06 15:36:00,74.2,45.6,30.02,East,100,14.0,16.0,36,0.00,,---,0.00,1007.00,VWS V14.01,2013-05-06 13:36:00,
2013-05-06 15:40:00,74.1,45.5,30.02,SSE,163,4.0,16.0,36,0.00,,---,0.00,947.00,VWS V14.01,2013-05-06 13:40:00,
2013-05-06 15:41:00,74.2,46.3,30.01,East,96,8.0,10.0,37,0.00,,---,0.00,956.00,VWS V14.01,2013-05-06 13:41:00,
2013-05-06 15:45:00,74.3,44.1,30.01,SE,126,10.0,10.0,34,0.00,,---,0.00,946.00,VWS V14.01,2013-05-06 13:45:00,
2013-05-06 15:46:00,74.5,45.1,30.01,ESE,111,11.0,12.0,35,0.00,,---,0.00,937.00,VWS V14.01,2013-05-06 13:46:00,
2013-05-06 15:50:00,74.8,45.3,30.01,ENE,65,7.0,12.0,35,0.00,,---,0.00,939.00,VWS V14.01,2013-05-06 13:50:00,
2013-05-06 15:51:00,74.9,43.9,30.01,NE,42,1.0,10.0,33,0.00,,---,0.00,949.00,VWS V14.01,2013-05-06 13:51:00,
2013-05-06 15:55:00,75.1,44.8,30.01,ESE,109,8.0,10.0,34,0.00,,---,0.00,295.00,VWS V14.01,2013-05-06 13:55:00,
2013-05-06 15:56:00,74.9,43.9,30.01,ESE,106,10.0,10.0,33,0.00,,---,0.00,301.00,VWS V14.01,2013-05-06 13:56:00,
2013-05-06 16:00:00,74.6,45.9,30.01,ESE,123,5.0,10.0,36,0.00,,---,0.00,320.00,VWS V14.01,2013-05-06 14:00:00,
2013-05-06 16:01:00,74.5,45.8,30.01,SE,142,5.0,9.0,36,0.00,,---,0.00,334.00,VWS V14.01,2013-05-06 14:01:00,
2013-05-06 16:05:00,74.2,47.0,30.00,ENE,69,7.0,11.0,38,0.00,,---,0.00,874.00,VWS V14.01,2013-05-06 14:05:00,
2013-05-06 16:06:00,73.8,45.9,30.00,East,86,6.0,9.0,37,0.00,,---,0.00,304.00,VWS V14.01,2013-05-06 14:06:00,
2013-05-06 16:10:00,73.5,46.4,30.00,ESE,106,3.0,12.0,38,0.00,,---,0.00,255.00,VWS V14.01,2013-05-06 14:10:00,
2013-05-06 16:11:00,73.3,46.2,30.00,ESE,102,8.0,11.0,38,0.00,,---,0.00,230.00,VWS V14.01,2013-05-06 14:11:00,
2013-05-06 16:15:00,72.6,47.6,30.00,ESE,106,14.0,15.0,41,0.00,,---,0.00,183.00,VWS V14.01,2013-05-06 14:15:00,
2013-05-06 16:20:00,71.7,48.7,30.00,East,99,9.0,14.0,44,0.00,,---,0.00,141.00,VWS V14.01,2013-05-06 14:20:00,
2013-05-06 16:25:00,70.9,49.7,30.00,East,86,6.0,12.0,47,0.00,,---,0.00,127.00,VWS V14.01,2013-05-06 14:25:00,
2013-05-06 16:26:00,70.7,49.5,30.00,ESE,115,13.0,13.0,47,0.00,,---,0.00,134.00,VWS V14.01,2013-05-06 14:26:00,
2013-05-06 16:30:00,70.4,49.8,30.00,SE,132,5.0,13.0,48,0.00,,---,0.00,141.00,VWS V14.01,2013-05-06 14:30:00,
2013-05-06 16:31:00,70.3,50.3,30.00,ESE,117,10.0,10.0,49,0.00,,---,0.00,141.00,VWS V14.01,2013-05-06 14:31:00,
2013-05-06 16:35:00,70.2,50.2,30.00,ESE,107,5.0,10.0,49,0.00,,---,0.00,137.00,VWS V14.01,2013-05-06 14:35:00,
2013-05-06 16:36:00,70.2,50.7,30.00,East,82,7.0,7.0,50,0.00,,---,0.00,137.00,VWS V14.01,2013-05-06 14:36:00,
2013-05-06 16:40:00,70.0,50.5,30.00,ESE,114,11.0,12.0,50,0.00,,---,0.00,120.00,VWS V14.01,2013-05-06 14:40:00,
2013-05-06 16:41:00,69.8,50.3,30.00,ESE,120,8.0,11.0,50,0.00,,---,0.00,114.00,VWS V14.01,2013-05-06 14:41:00,
2013-05-06 16:45:00,69.6,50.7,30.00,East,94,5.0,11.0,51,0.00,,---,0.00,118.00,VWS V14.01,2013-05-06 14:45:00,
2013-05-06 16:46:00,69.5,50.6,30.00,ESE,113,5.0,10.0,51,0.00,,---,0.00,134.00,VWS V14.01,2013-05-06 14:46:00,
2013-05-06 16:50:00,69.3,50.9,30.00,ESE,105,7.0,12.0,52,0.00,,---,0.00,165.00,VWS V14.01,2013-05-06 14:50:00,
2013-05-06 16:51:00,69.3,50.9,30.00,ESE,116,10.0,10.0,52,0.00,,---,0.00,153.00,VWS V14.01,2013-05-06 14:51:00,
2013-05-06 16:55:00,69.2,51.4,30.00,East,88,8.0,11.0,53,0.00,,---,0.00,127.00,VWS V14.01,2013-05-06 14:55:00,
2013-05-06 16:56:00,69.1,51.3,30.00,ESE,113,5.0,9.0,53,0.00,,---,0.00,121.00,VWS V14.01,2013-05-06 14:56:00,
2013-05-06 17:00:00,68.9,51.1,30.00,East,100,7.0,9.0,53,0.00,,---,0.00,118.00,VWS V14.01,2013-05-06 15:00:00,
2013-05-06 17:01:00,68.8,51.0,30.00,East,100,6.0,10.0,53,0.00,,---,0.00,120.00,VWS V14.01,2013-05-06 15:01:00,
2013-05-06 17:05:00,68.8,51.0,30.00,East,101,6.0,10.0,53,0.00,,---,0.00,128.00,VWS V14.01,2013-05-06 15:05:00,
2013-05-06 17:06:00,68.7,50.9,30.00,East,101,8.0,8.0,53,0.00,,---,0.00,132.00,VWS V14.01,2013-05-06 15:06:00,
2013-05-06 17:10:00,68.7,51.4,30.00,East,96,6.0,10.0,54,0.00,,---,0.00,162.00,VWS V14.01,2013-05-06 15:10:00,
2013-05-06 17:11:00,68.6,51.3,30.00,East,87,7.0,9.0,54,0.00,,---,0.00,197.00,VWS V14.01,2013-05-06 15:11:00,
2013-05-06 17:15:00,68.6,50.8,30.00,East,82,3.0,9.0,53,0.00,,---,0.00,262.00,VWS V14.01,2013-05-06 15:15:00,
2013-05-06 17:20:00,69.0,51.7,30.00,East,80,6.0,7.0,54,0.00,,---,0.00,353.00,VWS V14.01,2013-05-06 15:20:00,
2013-05-06 17:25:00,69.8,51.9,30.00,ESE,120,3.0,9.0,53,0.00,,---,0.00,712.00,VWS V14.01,2013-05-06 15:25:00,
2013-05-06 17:30:00,70.2,51.8,30.00,East,85,7.0,11.0,52,0.00,,---,0.00,682.00,VWS V14.01,2013-05-06 15:30:00,
2013-05-06 17:35:00,70.6,52.1,30.00,ENE,78,5.0,9.0,52,0.00,,---,0.00,592.00,VWS V14.01,2013-05-06 15:35:00,
2013-05-06 17:40:00,70.5,52.0,30.00,ESE,107,7.0,11.0,52,0.00,,---,0.00,555.00,VWS V14.01,2013-05-06 15:40:00,
2013-05-06 17:41:00,70.4,52.5,30.00,SE,138,5.0,8.0,53,0.00,,---,0.00,545.00,VWS V14.01,2013-05-06 15:41:00,
2013-05-06 17:45:00,70.4,52.0,30.00,ESE,118,9.0,10.0,52,0.00,,---,0.00,531.00,VWS V14.01,2013-05-06 15:45:00,
2013-05-06 17:46:00,70.4,52.0,30.00,ESE,107,7.0,10.0,52,0.00,,---,0.00,531.00,VWS V14.01,2013-05-06 15:46:00,
2013-05-06 17:50:00,70.2,51.8,30.00,ESE,115,4.0,14.0,52,0.00,,---,0.00,526.00,VWS V14.01,2013-05-06 15:50:00,
2013-05-06 17:51:00,70.2,51.8,30.01,SE,140,7.0,9.0,52,0.00,,---,0.00,522.00,VWS V14.01,2013-05-06 15:51:00,
2013-05-06 17:55:00,70.3,50.3,30.01,ESE,121,7.0,12.0,49,0.00,,---,0.00,520.00,VWS V14.01,2013-05-06 15:55:00,
2013-05-06 17:56:00,70.3,49.7,30.01,ESE,102,8.0,11.0,48,0.00,,---,0.00,496.00,VWS V14.01,2013-05-06 15:56:00,
2013-05-06 18:00:00,70.3,50.3,30.01,SSE,161,2.0,11.0,49,0.00,,---,0.00,468.00,VWS V14.01,2013-05-06 16:00:00,
2013-05-06 18:01:00,70.4,50.3,30.00,ESE,111,2.0,4.0,49,0.00,,---,0.00,476.00,VWS V14.01,2013-05-06 16:01:00,
2013-05-06 18:05:00,70.5,49.9,30.00,South,187,6.0,9.0,48,0.00,,---,0.00,468.00,VWS V14.01,2013-05-06 16:05:00,
2013-05-06 18:06:00,70.5,49.9,30.00,SSE,149,4.0,8.0,48,0.00,,---,0.00,462.00,VWS V14.01,2013-05-06 16:06:00,
2013-05-06 18:10:00,70.7,49.5,30.00,ESE,107,3.0,8.0,47,0.00,,---,0.00,438.00,VWS V14.01,2013-05-06 16:10:00,
2013-05-06 18:11:00,70.7,49.5,30.00,ESE,119,5.0,10.0,47,0.00,,---,0.00,436.00,VWS V14.01,2013-05-06 16:11:00,
2013-05-06 18:15:00,70.5,50.4,30.00,ESE,120,7.0,10.0,49,0.00,,---,0.00,436.00,VWS V14.01,2013-05-06 16:15:00,
2013-05-06 18:16:00,70.5,50.4,30.00,South,178,6.0,8.0,49,0.00,,---,0.00,396.00,VWS V14.01,2013-05-06 16:16:00,
2013-05-06 18:20:00,70.4,50.9,30.00,ENE,77,4.0,9.0,50,0.00,,---,0.00,415.00,VWS V14.01,2013-05-06 16:20:00,
2013-05-06 18:21:00,70.5,50.4,30.01,SSE,151,0.0,9.0,49,0.00,,---,0.00,406.00,VWS V14.01,2013-05-06 16:21:00,
2013-05-06 18:25:00,70.4,51.4,30.00,ENE,72,3.0,11.0,51,0.00,,---,0.00,394.00,VWS V14.01,2013-05-06 16:25:00,
2013-05-06 18:26:00,70.3,51.9,30.00,SE,146,5.0,13.0,52,0.00,,---,0.00,390.00,VWS V14.01,2013-05-06 16:26:00,
2013-05-06 18:30:00,70.3,51.9,30.00,SE,127,9.0,13.0,52,0.00,,---,0.00,367.00,VWS V14.01,2013-05-06 16:30:00,
2013-05-06 18:31:00,70.3,51.3,30.00,SSE,159,5.0,9.0,51,0.00,,---,0.00,369.00,VWS V14.01,2013-05-06 16:31:00,
2013-05-06 18:35:00,70.2,51.2,30.00,SE,135,4.0,9.0,51,0.00,,---,0.00,352.00,VWS V14.01,2013-05-06 16:35:00,
2013-05-06 18:36:00,70.2,51.2,30.00,SE,132,7.0,11.0,51,0.00,,---,0.00,355.00,VWS V14.01,2013-05-06 16:36:00,
2013-05-06 18:40:00,70.0,51.1,30.00,SSE,156,5.0,11.0,51,0.00,,---,0.00,343.00,VWS V14.01,2013-05-06 16:40:00,
2013-05-06 18:41:00,69.9,51.5,30.00,East,79,3.0,7.0,52,0.00,,---,0.00,318.00,VWS V14.01,2013-05-06 16:41:00,
2013-05-06 18:45:00,69.8,51.4,30.00,East,98,8.0,9.0,52,0.00,,---,0.00,285.00,VWS V14.01,2013-05-06 16:45:00,
2013-05-06 18:46:00,69.7,51.3,30.00,East,92,9.0,10.0,52,0.00,,---,0.00,269.00,VWS V14.01,2013-05-06 16:46:00,
2013-05-06 18:50:00,69.6,51.2,30.00,ESE,104,3.0,10.0,52,0.00,,---,0.00,306.00,VWS V14.01,2013-05-06 16:50:00,
2013-05-06 18:51:00,69.6,51.2,30.00,ESE,105,3.0,4.0,52,0.00,,---,0.00,294.00,VWS V14.01,2013-05-06 16:51:00,
2013-05-06 18:55:00,69.6,51.2,30.00,ESE,108,9.0,9.0,52,0.00,,---,0.00,258.00,VWS V14.01,2013-05-06 16:55:00,
2013-05-06 18:56:00,69.5,51.6,30.00,ESE,105,4.0,9.0,53,0.00,,---,0.00,265.00,VWS V14.01,2013-05-06 16:56:00,
2013-05-06 19:00:00,69.3,51.5,30.00,ESE,103,1.0,9.0,53,0.00,,---,0.00,265.00,VWS V14.01,2013-05-06 17:00:00,
2013-05-06 19:01:00,69.3,52.0,30.00,East,97,5.0,5.0,54,0.00,,---,0.00,257.00,VWS V14.01,2013-05-06 17:01:00,
2013-05-06 19:05:00,69.3,52.0,30.00,East,79,6.0,8.0,54,0.00,,---,0.00,234.00,VWS V14.01,2013-05-06 17:05:00,
2013-05-06 19:06:00,69.3,52.5,30.00,East,101,6.0,7.0,55,0.00,,---,0.00,236.00,VWS V14.01,2013-05-06 17:06:00,
2013-05-06 19:10:00,69.2,52.4,30.00,ESE,109,4.0,8.0,55,0.00,,---,0.00,209.00,VWS V14.01,2013-05-06 17:10:00,
2013-05-06 19:11:00,69.1,52.3,30.00,SE,128,5.0,7.0,55,0.00,,---,0.00,195.00,VWS V14.01,2013-05-06 17:11:00,
2013-05-06 19:15:00,69.0,52.2,30.00,East,101,3.0,7.0,55,0.00,,---,0.00,174.00,VWS V14.01,2013-05-06 17:15:00,
2013-05-06 19:20:00,69.1,52.3,30.00,SE,125,2.0,5.0,55,0.00,,---,0.00,192.00,VWS V14.01,2013-05-06 17:20:00,
2013-05-06 19:25:00,68.9,52.6,30.00,SE,126,3.0,7.0,56,0.00,,---,0.00,151.00,VWS V14.01,2013-05-06 17:25:00,
2013-05-06 19:30:00,68.7,52.4,30.01,SE,132,6.0,7.0,56,0.00,,---,0.00,153.00,VWS V14.01,2013-05-06 17:30:00,
2013-05-06 19:35:00,68.6,53.2,30.00,ESE,113,0.0,7.0,58,0.00,,---,0.00,153.00,VWS V14.01,2013-05-06 17:35:00,
2013-05-06 19:40:00,68.4,53.5,30.01,ESE,105,4.0,6.0,59,0.00,,---,0.00,132.00,VWS V14.01,2013-05-06 17:40:00,
2013-05-06 19:42:00,68.2,53.3,30.01,ESE,119,3.0,6.0,59,0.00,,---,0.00,128.00,VWS V14.01,2013-05-06 17:42:00,
2013-05-06 19:45:00,68.0,53.2,30.01,ESE,114,2.0,6.0,59,0.00,,---,0.00,111.00,VWS V14.01,2013-05-06 17:45:00,
2013-05-06 19:47:00,67.9,53.1,30.00,ESE,113,3.0,5.0,59,0.00,,---,0.00,104.00,VWS V14.01,2013-05-06 17:47:00,
2013-05-06 19:50:00,67.8,53.0,30.01,ESE,109,2.0,5.0,59,0.00,,---,0.00,90.00,VWS V14.01,2013-05-06 17:50:00,
2013-05-06 19:52:00,67.8,53.0,30.01,ESE,106,2.0,3.0,59,0.00,,---,0.00,79.00,VWS V14.01,2013-05-06 17:52:00,
2013-05-06 19:55:00,67.7,52.9,30.01,ESE,117,0.0,3.0,59,0.00,,---,0.00,74.00,VWS V14.01,2013-05-06 17:55:00,
2013-05-06 19:57:00,67.7,52.9,30.01,ESE,117,2.0,3.0,59,0.00,,---,0.00,72.00,VWS V14.01,2013-05-06 17:57:00,
2013-05-06 20:00:00,67.7,52.9,30.01,East,86,0.0,3.0,59,0.00,,---,0.00,65.00,VWS V14.01,2013-05-06 18:00:00,
2013-05-06 20:02:00,67.6,52.8,30.01,East,86,0.0,0.0,59,0.00,,---,0.00,60.00,VWS V14.01,2013-05-06 18:02:00,
2013-05-06 20:05:00,67.7,53.3,30.01,East,95,0.0,0.0,60,0.00,,---,0.00,51.00,VWS V14.01,2013-05-06 18:05:00,
2013-05-06 20:07:00,67.7,53.8,30.01,East,95,0.0,0.0,61,0.00,,---,0.00,49.00,VWS V14.01,2013-05-06 18:07:00,
2013-05-06 20:10:00,67.7,53.3,30.01,East,95,0.0,0.0,60,0.00,,---,0.00,47.00,VWS V14.01,2013-05-06 18:10:00,
2013-05-06 20:12:00,67.7,53.3,30.01,East,95,0.0,0.0,60,0.00,,---,0.00,46.00,VWS V14.01,2013-05-06 18:12:00,
2013-05-06 20:15:00,67.6,53.2,30.01,East,95,0.0,2.0,60,0.00,,---,0.00,40.00,VWS V14.01,2013-05-06 18:15:00,
2013-05-06 20:17:00,67.5,53.6,30.01,East,95,0.0,2.0,61,0.00,,---,0.00,39.00,VWS V14.01,2013-05-06 18:17:00,
2013-05-06 20:20:00,67.4,53.5,30.01,East,95,0.0,2.0,61,0.00,,---,0.00,33.00,VWS V14.01,2013-05-06 18:20:00,
2013-05-06 20:22:00,67.3,54.3,30.01,East,95,0.0,0.0,63,0.00,,---,0.00,32.00,VWS V14.01,2013-05-06 18:22:00,
2013-05-06 20:25:00,67.1,54.1,30.01,East,95,0.0,0.0,63,0.00,,---,0.00,26.00,VWS V14.01,2013-05-06 18:25:00,
2013-05-06 20:27:00,66.9,53.5,30.01,East,95,0.0,0.0,62,0.00,,---,0.00,26.00,VWS V14.01,2013-05-06 18:27:00,
2013-05-06 20:30:00,66.8,53.4,30.01,East,95,0.0,0.0,62,0.00,,---,0.00,25.00,VWS V14.01,2013-05-06 18:30:00,
2013-05-06 20:32:00,66.6,53.2,30.02,East,95,0.0,0.0,62,0.00,,---,0.00,23.00,VWS V14.01,2013-05-06 18:32:00,
2013-05-06 20:35:00,66.4,53.9,30.02,East,95,0.0,0.0,64,0.00,,---,0.00,19.00,VWS V14.01,2013-05-06 18:35:00,
2013-05-06 20:40:00,66.0,53.9,30.02,East,95,0.0,0.0,65,0.00,,---,0.00,12.00,VWS V14.01,2013-05-06 18:40:00,
2013-05-06 20:45:00,65.7,54.5,30.02,East,95,2.0,3.0,67,0.00,,---,0.00,7.00,VWS V14.01,2013-05-06 18:45:00,
2013-05-06 20:47:00,65.4,54.2,30.02,East,95,0.0,2.0,67,0.00,,---,0.00,5.00,VWS V14.01,2013-05-06 18:47:00,
2013-05-06 20:50:00,64.9,54.1,30.03,East,95,2.0,3.0,68,0.00,,---,0.00,0.00,VWS V14.01,2013-05-06 18:50:00,
2013-05-06 20:52:00,64.7,53.9,30.03,NW,313,0.0,2.0,68,0.00,,---,0.00,0.00,VWS V14.01,2013-05-06 18:52:00,
2013-05-06 20:55:00,64.2,53.4,30.03,NW,313,1.0,2.0,68,0.00,,---,0.00,0.00,VWS V14.01,2013-05-06 18:55:00,
2013-05-06 20:57:00,64.0,53.6,30.03,NW,313,0.0,1.0,69,0.00,,---,0.00,0.00,VWS V14.01,2013-05-06 18:57:00,
2013-05-06 21:00:00,63.7,53.0,30.03,NW,313,0.0,2.0,68,0.00,,---,0.00,0.00,VWS V14.01,2013-05-06 19:00:00,
2013-05-06 21:02:00,63.5,53.2,30.03,NW,313,0.0,1.0,69,0.00,,---,0.00,0.00,VWS V14.01,2013-05-06 19:02:00,
2013-05-06 21:05:00,63.3,53.4,30.03,NW,313,0.0,1.0,70,0.00,,---,0.00,0.00,VWS V14.01,2013-05-06 19:05:00,
2013-05-06 21:08:00,63.1,53.6,30.03,NW,313,0.0,0.0,71,0.00,,---,0.00,0.00,VWS V14.01,2013-05-06 19:08:00,
2013-05-06 21:10:00,62.8,53.3,30.03,NW,313,0.0,0.0,71,0.00,,---,0.00,0.00,VWS V14.01,2013-05-06 19:10:00,
2013-05-06 21:13:00,62.6,53.5,30.03,NW,313,0.0,0.0,72,0.00,,---,0.00,0.00,VWS V14.01,2013-05-06 19:13:00,
2013-05-06 21:15:00,62.5,53.7,30.03,NW,313,0.0,0.0,73,0.00,,---,0.00,0.00,VWS V14.01,2013-05-06 19:15:00,
2013-05-06 21:20:00,62.1,53.3,30.03,NW,313,0.0,0.0,73,0.00,,---,0.00,0.00,VWS V14.01,2013-05-06 19:20:00,
2013-05-06 21:25:00,61.7,53.3,30.04,NW,313,0.0,0.0,74,0.00,,---,0.00,0.00,VWS V14.01,2013-05-06 19:25:00,
2013-05-06 21:30:00,61.3,53.0,30.04,NW,313,0.0,0.0,74,0.00,,---,0.00,0.00,VWS V14.01,2013-05-06 19:30:00,
2013-05-06 21:35:00,61.0,53.0,30.04,WNW,296,3.0,3.0,75,0.00,,---,0.00,0.00,VWS V14.01,2013-05-06 19:35:00,
2013-05-06 21:40:00,60.4,52.8,30.04,WNW,296,1.0,3.0,76,0.00,,---,0.00,0.00,VWS V14.01,2013-05-06 19:40:00,
2013-05-06 21:43:00,60.1,52.9,30.04,WNW,296,2.0,3.0,77,0.00,,---,0.00,0.00,VWS V14.01,2013-05-06 19:43:00,
2013-05-06 21:45:00,59.9,52.7,30.04,WNW,296,2.0,3.0,77,0.00,,---,0.00,0.00,VWS V14.01,2013-05-06 19:45:00,
2013-05-06 21:48:00,59.6,52.7,30.04,WNW,296,2.0,4.0,78,0.00,,---,0.00,0.00,VWS V14.01,2013-05-06 19:48:00,
2013-05-06 21:50:00,59.4,52.5,30.04,WNW,296,1.0,4.0,78,0.00,,---,0.00,0.00,VWS V14.01,2013-05-06 19:50:00,
2013-05-06 21:53:00,59.1,52.3,30.04,WNW,295,2.0,4.0,78,0.00,,---,0.00,0.00,VWS V14.01,2013-05-06 19:53:00,
2013-05-06 21:55:00,58.9,52.4,30.04,WNW,295,3.0,4.0,79,0.00,,---,0.00,0.00,VWS V14.01,2013-05-06 19:55:00,
2013-05-06 22:00:00,58.5,52.4,30.04,WNW,286,1.0,4.0,80,0.00,,---,0.00,0.00,VWS V14.01,2013-05-06 20:00:00,
2013-05-06 22:05:00,58.3,52.2,30.05,WNW,286,0.0,2.0,80,0.00,,---,0.00,0.00,VWS V14.01,2013-05-06 20:05:00,
2013-05-06 22:10:00,58.0,52.2,30.05,WNW,286,0.0,2.0,81,0.00,,---,0.00,0.00,VWS V14.01,2013-05-06 20:10:00,
2013-05-06 22:15:00,57.9,52.1,30.05,WNW,285,2.0,4.0,81,0.00,,---,0.00,0.00,VWS V14.01,2013-05-06 20:15:00,
2013-05-06 22:20:00,57.6,51.8,30.05,WNW,284,3.0,5.0,81,0.00,,---,0.00,0.00,VWS V14.01,2013-05-06 20:20:00,
2013-05-06 22:25:00,57.4,51.6,30.05,West,277,4.0,5.0,81,0.00,,---,0.00,0.00,VWS V14.01,2013-05-06 20:25:00,
2013-05-06 22:30:00,57.1,51.7,30.05,West,271,5.0,6.0,82,0.00,,---,0.00,0.00,VWS V14.01,2013-05-06 20:30:00,
2013-05-06 22:33:00,56.8,51.4,30.05,WNW,285,4.0,6.0,82,0.00,,---,0.00,0.00,VWS V14.01,2013-05-06 20:33:00,
2013-05-06 22:35:00,56.8,51.4,30.05,WNW,284,4.0,6.0,82,0.00,,---,0.00,0.00,VWS V14.01,2013-05-06 20:35:00,
2013-05-06 22:38:00,56.6,51.2,30.05,WNW,292,2.0,4.0,82,0.00,,---,0.00,0.00,VWS V14.01,2013-05-06 20:38:00,
2013-05-06 22:40:00,56.6,51.5,30.05,WNW,292,0.0,4.0,83,0.00,,---,0.00,0.00,VWS V14.01,2013-05-06 20:40:00,
2013-05-06 22:43:00,56.5,51.4,30.05,WNW,292,0.0,0.0,83,0.00,,---,0.00,0.00,VWS V14.01,2013-05-06 20:43:00,
2013-05-06 22:45:00,56.5,51.4,30.05,WNW,292,0.0,0.0,83,0.00,,---,0.00,0.00,VWS V14.01,2013-05-06 20:45:00,
2013-05-06 22:50:00,56.5,51.4,30.05,WNW,292,1.0,2.0,83,0.00,,---,0.00,0.00,VWS V14.01,2013-05-06 20:50:00,
2013-05-06 22:55:00,56.4,51.3,30.05,WNW,292,1.0,4.0,83,0.00,,---,0.00,0.00,VWS V14.01,2013-05-06 20:55:00,
2013-05-06 23:00:00,56.2,51.1,30.05,WNW,292,0.0,2.0,83,0.00,,---,0.00,0.00,VWS V14.01,2013-05-06 21:00:00,
2013-05-06 23:05:00,56.0,51.2,30.05,WNW,292,3.0,4.0,84,0.00,,---,0.00,0.00,VWS V14.01,2013-05-06 21:05:00,
2013-05-06 23:07:00,55.9,51.1,30.05,WNW,292,3.0,4.0,84,0.00,,---,0.00,0.00,VWS V14.01,2013-05-06 21:07:00,
2013-05-06 23:10:00,55.8,51.0,30.05,WNW,292,2.0,4.0,84,0.00,,---,0.00,0.00,VWS V14.01,2013-05-06 21:10:00,
2013-05-06 23:12:00,55.7,51.0,30.05,WNW,292,4.0,4.0,84,0.00,,---,0.00,0.00,VWS V14.01,2013-05-06 21:12:00,
2013-05-06 23:15:00,55.6,50.8,30.05,WNW,292,3.0,4.0,84,0.00,,---,0.00,0.00,VWS V14.01,2013-05-06 21:15:00,
2013-05-06 23:17:00,55.6,50.8,30.05,WNW,292,3.0,3.0,84,0.00,,---,0.00,0.00,VWS V14.01,2013-05-06 21:17:00,
2013-05-06 23:20:00,55.5,50.8,30.04,WNW,292,4.0,5.0,84,0.00,,---,0.00,0.00,VWS V14.01,2013-05-06 21:20:00,
2013-05-06 23:22:00,55.4,51.0,30.05,WNW,292,2.0,4.0,85,0.00,,---,0.00,0.00,VWS V14.01,2013-05-06 21:22:00,
2013-05-06 23:25:00,55.4,51.0,30.04,WNW,292,3.0,4.0,85,0.00,,---,0.00,0.00,VWS V14.01,2013-05-06 21:25:00,
2013-05-06 23:28:00,55.4,51.0,30.04,WNW,292,4.0,5.0,85,0.00,,---,0.00,0.00,VWS V14.01,2013-05-06 21:28:00,
2013-05-06 23:30:00,55.3,50.9,30.04,WNW,292,4.0,5.0,85,0.00,,---,0.00,0.00,VWS V14.01,2013-05-06 21:30:00,
2013-05-06 23:33:00,55.3,50.9,30.04,WNW,292,4.0,5.0,85,0.00,,---,0.00,0.00,VWS V14.01,2013-05-06 21:33:00,
2013-05-06 23:35:00,55.2,50.8,30.04,WNW,292,5.0,5.0,85,0.00,,---,0.00,0.00,VWS V14.01,2013-05-06 21:35:00,
2013-05-06 23:38:00,55.1,50.7,30.04,WNW,292,5.0,6.0,85,0.00,,---,0.00,0.00,VWS V14.01,2013-05-06 21:38:00,
2013-05-06 23:40:00,55.0,50.9,30.04,WNW,292,2.0,6.0,86,0.00,,---,0.00,0.00,VWS V14.01,2013-05-06 21:40:00,
2013-05-06 23:43:00,55.0,50.9,30.04,WNW,292,0.0,5.0,86,0.00,,---,0.00,0.00,VWS V14.01,2013-05-06 21:43:00,
2013-05-06 23:45:00,55.0,50.9,30.04,WNW,292,0.0,5.0,86,0.00,,---,0.00,0.00,VWS V14.01,2013-05-06 21:45:00,
2013-05-06 23:48:00,55.0,50.9,30.04,WNW,292,0.0,1.0,86,0.00,,---,0.00,0.00,VWS V14.01,2013-05-06 21:48:00,
2013-05-06 23:50:00,55.0,50.9,30.04,WNW,292,2.0,2.0,86,0.00,,---,0.00,0.00,VWS V14.01,2013-05-06 21:50:00,
2013-05-06 23:53:00,55.0,50.9,30.04,WNW,292,4.0,4.0,86,0.00,,---,0.00,0.00,VWS V14.01,2013-05-06 21:53:00,
2013-05-06 23:55:00,55.0,50.9,30.04,WNW,292,2.0,5.0,86,0.00,,---,0.00,0.00,VWS V14.01,2013-05-06 21:55:00,
2013-05-06 23:58:00,54.9,50.8,30.04,WNW,292,2.0,4.0,86,0.00,,---,0.00,0.00,VWS V14.01,2013-05-06 21:58:00,